Location: Wingville
(42.9917°N, 90.4915°W)
Time: 02:13:39
(UTC+00:00)

UWE-3 - Pass Details

Date: 05 July 2022
Orbit: 583 x 677 km, 97.7° (Epoch: 11 August)

Event Time Altitude Azimuth Distance (km) Brightness Sun altitude
Rises 08:28:13 0° 28° (NNE) 2,921 ? -16.6°
Reaches altitude 10° 08:30:54 10° 45° (NE) 2,026 ? -16.3°
Maximum altitude 08:34:13 21° 93° (E) 1,467 ? -16.0°
Drops below altitude 10° 08:37:34 10° 142° (SE) 2,057 ? -15.6°
Enters shadow 08:39:27 - 155° (SSE) 2,676 ? -15.4°
